Satellite-Ground Cal/Val Site Overpasses Predictions

Prediction of Satellite NPP Overpassing Cal/Val Site: Antarctic Dome C

Ground Cal/Val Site Location: Latitude: -75.10, Longitude: 123.35; Satellite-Ground Site NADIR distance within 100 km.

Table of predicted overpasses for the next 14.0 days since TLE Epoch: 4/1/2014
Interval Starting Time Ending Time Minimum Distance Time Minimum Distance (km)
1 04/02/2014 07:48:38 04/02/2014 07:49:00 04/02/2014 07:48:49 66.75
2 04/03/2014 07:29:49 04/03/2014 07:30:16 04/03/2014 07:30:02 41.01
3 04/06/2014 14:53:22 04/06/2014 14:53:51 04/06/2014 14:53:37 7.64
4 04/08/2014 07:36:16 04/08/2014 07:36:46 04/08/2014 07:36:31 3.96
5 04/11/2014 14:59:51 04/11/2014 15:00:19 04/11/2014 15:00:05 29.86
6 04/12/2014 14:41:09 04/12/2014 14:41:27 04/12/2014 14:41:18 77.30
7 04/13/2014 07:42:44 04/13/2014 07:43:11 04/13/2014 07:42:58 32.54


NCC Satellite Cal/Val Overpasses Prediction Service
